Tracking 32139 objects as of 18-Nov-2025
HD Live streaming from Space Station
objects crossing your sky now

INTELSAT 10 (PAS 10)

Track INTELSAT 10 (PAS 10) now!
INTELSAT 10 (PAS 10) is classified as:


NORAD ID: 26766
Int'l Code: 2001-019A
Perigee: 36,104.0 km
Apogee: 36,161.5 km
Inclination: 8.6 °
Period: 1,453.5 minutes
Semi major axis: 42503 km
RCS: 12.6191 m2 (large)
Launch date: May 15, 2001
Source: United States (US)
Launch site: TYURATAM MISSILE AND SPACE COMPLEX (TTMTR)

Direct-to-home video channels; 24 C-band, 24 Ku-band; Asia, Africa, Middle East, Europe.
Your satellite tracking list
Your tracking list is empty




NASA's NSSDC Master Catalog

Two Line Element Set (TLE):
1 26766U 01019A   25322.14609311  .00000074  00000-0  00000+0 0  9997
2 26766   8.5698  61.4013 0006772 213.4692  79.7180  0.99074591 43484
Source of the keplerian elements: AFSPC